Content
SEND FEEDBACK

Daily
Averages
Monthly
Summary
United States of America

WILMINGTON, NORTH CAROLINA


Home > North America > United States > North Carolina
Elevation: 21 meters     Latitude: 34 16N     Longitude: 077 54W

WEATHER
 
SELECT A DAY
Number of Records: 208,780;   Date Range: 1/1/95 - 7/26/14
 
SHARE

PRINT THIS DATA

[ ← Previous Day ]
WEATHER ALMANAC - 26 MARCH, 2013
[ Next Day → ]
[ °F ]   °C
Weather ElementAverageHighLow
Temperature6.4 °C10.6 °C (3:53 pm)1.1 °C (6:53 am)
Dewpoint-2.8 °C-0.6 °C (9:53 pm)-4.4 °C (10:53 am)
Humidity52.9 %70 % (6:53 am)38 % (1:53 pm)
Barometer1014.9 hPa1019.6 hPa (11:53 pm)1011.9 hPa (1:53 am)
Wind Speed17.1 km/h27.8 km/h (12:53 pm)
Wind Gust38.9 km/h (1:53 pm)
Weather ElementAverage
Visibility16.1 km
Wind DirectionWNW (280 °)

Weather ElementTotal
Precipitation---
Heating Degree Days12.5 (Base 18.3)
Averaged from 23 records on 26 March, 2013
WEATHER CONDITIONS BREAKOUT
WIND DIRECTION BREAKOUT
WEATHER BY HOUR - 26 MARCH, 2013
[ °F ]   °C
Local TimeTemperatureDewpointHumidityBarometerVisibilityWind DirectionWind SpeedGust SpeedPrecipitationEventsConditions
1:53 AM5 °C-3.3 °C55 %1011.9 hPa16.1 kmWest (260°)18.5 km/hClear
2:53 AM3.9 °C-3.3 °C60 %1012.2 hPa16.1 kmWest (260°)16.7 km/hClear
3:53 AM2.8 °C-3.3 °C65 %1012.5 hPa16.1 kmWest (260°)14.8 km/hClear
4:53 AM2.2 °C-3.3 °C67 %1012.5 hPa16.1 kmWest (270°)13 km/hClear
5:53 AM2.2 °C-3.9 °C64 %1012.9 hPa16.1 kmWest (270°)13 km/hClear
6:53 AM1.1 °C-3.9 °C70 %1013.2 hPa16.1 kmWest (260°)13 km/hClear
7:53 AM1.7 °C-3.3 °C70 %1013.9 hPa16.1 kmWest (260°)14.8 km/hClear
8:53 AM4.4 °C-3.3 °C58 %1014.2 hPa16.1 kmWNW (290°)20.4 km/hClear
9:53 AM6.7 °C-3.3 °C49 %1014.6 hPa16.1 kmWNW (290°)16.7 km/hClear
10:53 AM8.3 °C-4.4 °C41 %1014.2 hPa16.1 kmWNW (300°)16.7 km/h29.6 km/hClear
11:53 AM9.4 °C-3.9 °C39 %1014.2 hPa16.1 kmWest (280°)20.4 km/h29.6 km/hPartly Cloudy
12:53 PM10 °C-3.3 °C39 %1014.2 hPa16.1 kmWNW (290°)27.8 km/h35.2 km/hMostly Cloudy
1:53 PM9.4 °C-4.4 °C38 %1013.9 hPa16.1 kmWNW (290°)24.1 km/h38.9 km/hScattered Clouds
2:53 PM8.9 °C-3.9 °C41 %1014.2 hPa16.1 kmNW (310°)24.1 km/hOvercast
3:53 PM10.6 °C-2.8 °C39 %1014.2 hPa16.1 kmWNW (290°)24.1 km/hOvercast
4:53 PM10 °C-3.3 °C39 %1014.6 hPa16.1 kmNW (320°)22.2 km/h31.5 km/hOvercast
5:53 PM9.4 °C-2.2 °C44 %1015.2 hPa16.1 kmWNW (300°)24.1 km/h33.3 km/hOvercast
6:53 PM8.9 °C-1.7 °C48 %1015.9 hPa16.1 kmWNW (290°)13 km/hPartly Cloudy
7:53 PM8.3 °C-1.7 °C50 %1016.9 hPa16.1 kmWest (280°)13 km/hMostly Cloudy
8:53 PM6.7 °C-1.1 °C58 %1017.9 hPa16.1 kmWest (260°)11.1 km/hClear
9:53 PM7.2 °C-0.6 °C58 %1018.6 hPa16.1 kmWest (270°)9.3 km/hMostly Cloudy
10:53 PM6.1 °C-0.6 °C62 %1019.3 hPa16.1 kmWest (270°)9.3 km/hClear
11:53 PM5.6 °C-1.1 °C62 %1019.6 hPa16.1 kmWest (270°)13 km/hClear
Hourly data recorded from KILM, located 0 kilometers away from Wilmington, North Carolina







STORIES FROM OUR PARTNERS